When you browse on this site, cookies collect data to enhance your experience and personalize the content and advertising you see.
Visit our Privacy Policy to learn more. By continuing to use the site, you agree to this use of cookies and data.
  • Em Portugal
  • Lista de países
  • Para 7 dias
  • Temperatura da água
  • Mapas de satélite
  • Mapa do tempo
  • Widgets de tempo
  • user-avatar
    Iniciar Sessão

    Previsão horária em Killarney

    Hoje, 19 Janeiro, Sábado

    Tempo Temperatura Precipitação Vento Pressão Humidade
    00:00 +6°C° 0 mm 2 m/s 749 mmHg 93%
    01:00 +6°C° 0 mm 2 m/s 749 mmHg 94%
    02:00 +6°C° 0 mm 2 m/s 749 mmHg 94%
    03:00 +6°C° 0 mm 2 m/s 749 mmHg 95%
    04:00 +6°C° 0 mm 2 m/s 749 mmHg 95%
    05:00 +6°C° 0 mm 2 m/s 749 mmHg 95%
    06:00 +6°C° 0 mm 2 m/s 750 mmHg 95%
    07:00 +6°C° 0 mm 2 m/s 750 mmHg 95%
    08:00 +6°C° 0 mm 2 m/s 750 mmHg 95%
    09:00 +8°C° 0 mm 2 m/s 750 mmHg 91%
    10:00 +9°C° 0 mm 2 m/s 750 mmHg 88%
    11:00 +10°C° 0 mm 2 m/s 751 mmHg 84%
    12:00 +10°C° 0 mm 3 m/s 751 mmHg 83%
    13:00 +10°C° 0 mm 3 m/s 751 mmHg 83%
    14:00 +10°C° 0 mm 3 m/s 751 mmHg 82%
    15:00 +9°C° 0 mm 3 m/s 751 mmHg 87%
    16:00 +8°C° 0 mm 2 m/s 752 mmHg 91%
    17:00 +7°C° 0 mm 2 m/s 752 mmHg 96%
    18:00 +7°C° 0 mm 2 m/s 753 mmHg 96%
    19:00 +7°C° 0 mm 2 m/s 754 mmHg 96%
    20:00 +7°C° 0 mm 2 m/s 754 mmHg 96%
    21:00 +7°C° 0.2 mm 3 m/s 755 mmHg 96%
    22:00 +7°C° 0.2 mm 4 m/s 756 mmHg 95%
    23:00 +7°C° 0.2 mm 5 m/s 756 mmHg 94%

    Amanhã, 20 Janeiro, Domingo

    Tempo Temperatura Precipitação Vento Pressão Humidade
    00:00 +7°C° 0.6 mm 6 m/s 757 mmHg 91%
    01:00 +6°C° 0.6 mm 7 m/s 757 mmHg 89%
    02:00 +5°C° 0.6 mm 9 m/s 758 mmHg 86%
    03:00 +5°C° 0.2 mm 8 m/s 759 mmHg 86%
    04:00 +5°C° 0.2 mm 8 m/s 760 mmHg 85%
    05:00 +4°C° 0.2 mm 8 m/s 760 mmHg 84%
    06:00 +4°C° 0.1 mm 7 m/s 761 mmHg 84%
    07:00 +4°C° 0.1 mm 7 m/s 762 mmHg 83%
    08:00 +3°C° 0.1 mm 6 m/s 763 mmHg 82%
    09:00 +4°C° 0 mm 6 m/s 764 mmHg 79%
    10:00 +4°C° 0 mm 6 m/s 765 mmHg 76%
    11:00 +4°C° 0 mm 7 m/s 766 mmHg 72%
    12:00 +4°C° 0 mm 6 m/s 766 mmHg 71%
    13:00 +4°C° 0 mm 6 m/s 766 mmHg 70%
    14:00 +5°C° 0 mm 5 m/s 766 mmHg 69%
    15:00 +5°C° 0 mm 4 m/s 767 mmHg 73%
    16:00 +4°C° 0 mm 3 m/s 767 mmHg 78%
    17:00 +4°C° 0 mm 2 m/s 768 mmHg 82%
    18:00 +3°C° 0 mm 2 m/s 768 mmHg 83%
    19:00 +4°C° 0 mm 1 m/s 769 mmHg 83%
    20:00 +4°C° 0 mm 1 m/s 769 mmHg 84%
    21:00 +3°C° 0 mm 1 m/s 769 mmHg 84%
    22:00 +3°C° 0 mm 1 m/s 769 mmHg 84%
    23:00 +2°C° 0 mm 0 m/s 769 mmHg 84%

    Depois de amanhã, 21 Janeiro, Segunda-feira

    Tempo Temperatura Precipitação Vento Pressão Humidade
    00:00 +3°C° 0 mm 1 m/s 768 mmHg 84%
    01:00 +3°C° 0 mm 1 m/s 768 mmHg 84%
    02:00 +3°C° 0 mm 1 m/s 768 mmHg 84%
    03:00 +2°C° 0 mm 2 m/s 767 mmHg 84%
    04:00 +2°C° 0 mm 2 m/s 766 mmHg 84%
    05:00 +2°C° 0 mm 2 m/s 765 mmHg 83%
    06:00 +2°C° 0 mm 3 m/s 765 mmHg 83%
    07:00 +3°C° 0 mm 3 m/s 764 mmHg 83%
    08:00 +3°C° 0 mm 4 m/s 763 mmHg 82%
    09:00 +3°C° 0 mm 5 m/s 762 mmHg 80%
    10:00 +4°C° 0 mm 7 m/s 760 mmHg 78%
    11:00 +5°C° 0 mm 9 m/s 759 mmHg 75%
    12:00 +5°C° 0.9 mm 9 m/s 757 mmHg 79%
    13:00 +5°C° 0.9 mm 9 m/s 755 mmHg 83%
    14:00 +5°C° 0.9 mm 10 m/s 753 mmHg 87%
    15:00 +3°C° 2.1 mm 9 m/s 753 mmHg 83%
    16:00 +2°C° 2.1 mm 8 m/s 753 mmHg 79%
    17:00 +2°C° 2.1 mm 7 m/s 753 mmHg 75%
    18:00 +2°C° 0.1 mm 7 m/s 754 mmHg 74%
    19:00 0°C° 0.1 mm 7 m/s 754 mmHg 73%
    20:00 0°C° 0.1 mm 7 m/s 755 mmHg 72%
    21:00 0°C° 0.3 mm 7 m/s 754 mmHg 72%
    22:00 0°C° 0.3 mm 7 m/s 754 mmHg 73%
    23:00 0°C° 0.3 mm 7 m/s 754 mmHg 73%

    22 Janeiro, Terça-feira

    Tempo Temperatura Precipitação Vento Pressão Humidade
    00:00 0°C° 0.5 mm 7 m/s 754 mmHg 74%
    01:00 0°C° 0.5 mm 7 m/s 753 mmHg 75%
    02:00 0°C° 0.5 mm 8 m/s 753 mmHg 76%
    03:00 0°C° 0.5 mm 8 m/s 753 mmHg 77%
    04:00 0°C° 0.5 mm 8 m/s 752 mmHg 77%
    05:00 0°C° 0.5 mm 8 m/s 752 mmHg 78%
    06:00 -1°C° 0.4 mm 8 m/s 752 mmHg 77%
    07:00 -1°C° 0.4 mm 8 m/s 753 mmHg 76%
    08:00 -1°C° 0.4 mm 8 m/s 753 mmHg 76%
    09:00 -1°C° 0.4 mm 8 m/s 753 mmHg 76%
    10:00 0°C° 0.4 mm 8 m/s 754 mmHg 76%
    11:00 0°C° 0.4 mm 8 m/s 754 mmHg 76%
    12:00 0°C° 0.3 mm 8 m/s 754 mmHg 76%
    13:00 0°C° 0.3 mm 8 m/s 754 mmHg 77%
    14:00 0°C° 0.3 mm 8 m/s 754 mmHg 77%
    15:00 0°C° 0.2 mm 7 m/s 754 mmHg 79%
    16:00 0°C° 0.2 mm 7 m/s 755 mmHg 81%
    17:00 +1°C° 0.2 mm 6 m/s 755 mmHg 83%
    18:00 +1°C° 0.3 mm 5 m/s 755 mmHg 85%
    19:00 +1°C° 0.3 mm 5 m/s 755 mmHg 87%
    20:00 +1°C° 0.3 mm 4 m/s 755 mmHg 89%
    21:00 +1°C° 0.2 mm 4 m/s 755 mmHg 89%
    22:00 +1°C° 0.2 mm 4 m/s 755 mmHg 90%
    23:00 +2°C° 0.2 mm 3 m/s 755 mmHg 90%

    23 Janeiro, Quarta-feira

    Tempo Temperatura Precipitação Vento Pressão Humidade
    00:00 +2°C° 0.1 mm 3 m/s 755 mmHg 91%
    01:00 +2°C° 0.1 mm 3 m/s 755 mmHg 91%
    02:00 +3°C° 0.1 mm 3 m/s 755 mmHg 91%
    03:00 +3°C° 0.1 mm 3 m/s 755 mmHg 92%
    04:00 +2°C° 0.1 mm 3 m/s 755 mmHg 92%
    05:00 +2°C° 0.1 mm 3 m/s 755 mmHg 93%
    06:00 +3°C° 0.1 mm 3 m/s 755 mmHg 93%
    07:00 +4°C° 0.1 mm 2 m/s 756 mmHg 93%
    08:00 +4°C° 0.1 mm 2 m/s 756 mmHg 94%
    09:00 +3°C° 0 mm 3 m/s 756 mmHg 93%
    10:00 +4°C° 0 mm 3 m/s 756 mmHg 92%
    11:00 +4°C° 0 mm 3 m/s 757 mmHg 91%
    12:00 +4°C° 0 mm 3 m/s 757 mmHg 90%
    13:00 +4°C° 0 mm 4 m/s 757 mmHg 88%
    14:00 +4°C° 0 mm 4 m/s 757 mmHg 87%
    15:00 +4°C° 0 mm 4 m/s 757 mmHg 87%
    16:00 +3°C° 0 mm 3 m/s 757 mmHg 88%
    17:00 +3°C° 0 mm 3 m/s 758 mmHg 88%
    18:00 +2°C° 0 mm 3 m/s 758 mmHg 88%
    19:00 +2°C° 0 mm 3 m/s 759 mmHg 88%
    20:00 +2°C° 0 mm 2 m/s 759 mmHg 89%
    21:00 +2°C° 0 mm 2 m/s 760 mmHg 88%
    22:00 +2°C° 0 mm 2 m/s 760 mmHg 88%
    23:00 +2°C° 0 mm 2 m/s 760 mmHg 88%

    24 Janeiro, Quinta-feira

    Tempo Temperatura Precipitação Vento Pressão Humidade
    00:00 +2°C° 0 mm 2 m/s 761 mmHg 88%
    01:00 +3°C° 0 mm 1 m/s 761 mmHg 89%
    02:00 +2°C° 0 mm 1 m/s 761 mmHg 89%
    03:00 +2°C° 0 mm 1 m/s 761 mmHg 90%
    04:00 +2°C° 0 mm 1 m/s 762 mmHg 91%
    05:00 +2°C° 0 mm 1 m/s 762 mmHg 92%
    06:00 +2°C° 0 mm 1 m/s 763 mmHg 91%
    07:00 +2°C° 0 mm 1 m/s 763 mmHg 91%
    08:00 +2°C° 0 mm 1 m/s 764 mmHg 91%
    09:00 +3°C° 0 mm 1 m/s 764 mmHg 87%
    10:00 +3°C° 0 mm 0 m/s 764 mmHg 82%
    11:00 +5°C° 0 mm 0 m/s 764 mmHg 78%
    12:00 +6°C° 0 mm 1 m/s 764 mmHg 78%
    13:00 +7°C° 0 mm 1 m/s 764 mmHg 79%
    14:00 +7°C° 0 mm 1 m/s 764 mmHg 79%
    15:00 +6°C° 0 mm 1 m/s 764 mmHg 82%
    16:00 +5°C° 0 mm 1 m/s 764 mmHg 85%
    17:00 +4°C° 0 mm 1 m/s 764 mmHg 88%
    18:00 +4°C° 0 mm 1 m/s 764 mmHg 89%
    19:00 +4°C° 0 mm 1 m/s 765 mmHg 90%
    20:00 +5°C° 0 mm 1 m/s 765 mmHg 90%
    21:00 +5°C° 0 mm 1 m/s 765 mmHg 91%
    22:00 +5°C° 0 mm 1 m/s 765 mmHg 91%
    23:00 +5°C° 0 mm 1 m/s 765 mmHg 92%
    Mostrar mais